TimeCST,TemperatureF,Dew PointF,Humidity,Sea Level PressureIn,VisibilityMPH,Wind Direction,Wind SpeedMPH,Gust SpeedMPH,PrecipitationIn,Events,Conditions,WindDirDegrees,DateUTC
12:15 AM,19.4,16.3,88,29.87,10.0,NE,3.5,-,N/A,,Overcast,40,2013-12-22 06:15:00
12:35 AM,19.8,16.5,87,29.87,10.0,NNE,3.5,-,N/A,,Overcast,20,2013-12-22 06:35:00
12:55 AM,19.8,16.5,87,29.85,10.0,North,4.6,-,N/A,Snow,Light Snow,10,2013-12-22 06:55:00
1:15 AM,19.2,16.5,89,29.84,10.0,NNE,3.5,-,N/A,,Mostly Cloudy,30,2013-12-22 07:15:00
1:35 AM,20.3,17.6,89,29.84,10.0,NNE,4.6,-,N/A,,Overcast,20,2013-12-22 07:35:00
1:55 AM,19.6,16.9,89,29.84,10.0,North,5.8,-,N/A,,Scattered Clouds,10,2013-12-22 07:55:00
2:15 AM,19.6,17.1,90,29.84,10.0,North,6.9,-,N/A,,Mostly Cloudy,10,2013-12-22 08:15:00
2:35 AM,21.7,19.0,89,29.85,10.0,NNE,5.8,-,N/A,,Overcast,30,2013-12-22 08:35:00
2:55 AM,21.7,18.7,88,29.84,10.0,NNE,4.6,-,N/A,,Overcast,20,2013-12-22 08:55:00
3:15 AM,21.7,18.5,87,29.85,10.0,North,5.8,-,N/A,,Overcast,10,2013-12-22 09:15:00
3:35 AM,21.7,18.5,87,29.85,10.0,NNE,4.6,-,N/A,,Overcast,20,2013-12-22 09:35:00
3:55 AM,21.7,18.5,87,29.84,10.0,North,6.9,-,N/A,,Overcast,10,2013-12-22 09:55:00
4:15 AM,21.7,18.5,87,29.83,10.0,NNE,6.9,-,N/A,,Overcast,20,2013-12-22 10:15:00
4:35 AM,21.7,18.5,87,29.84,10.0,NNE,6.9,-,N/A,,Overcast,20,2013-12-22 10:35:00
4:55 AM,21.7,18.5,87,29.85,10.0,North,4.6,-,N/A,,Overcast,10,2013-12-22 10:55:00
5:15 AM,21.7,18.5,87,29.85,10.0,North,6.9,-,N/A,,Overcast,10,2013-12-22 11:15:00
5:35 AM,21.7,18.5,87,29.84,10.0,NNE,5.8,-,N/A,,Overcast,20,2013-12-22 11:35:00
5:55 AM,21.7,18.3,87,29.85,10.0,NNE,4.6,-,N/A,,Overcast,20,2013-12-22 11:55:00
6:15 AM,21.7,18.0,85,29.85,10.0,NNE,4.6,-,N/A,,Overcast,30,2013-12-22 12:15:00
6:35 AM,21.7,17.4,83,29.84,10.0,NE,8.1,-,N/A,,Overcast,50,2013-12-22 12:35:00
6:55 AM,21.7,16.7,81,29.85,10.0,NE,6.9,-,N/A,,Overcast,50,2013-12-22 12:55:00
7:15 AM,21.7,16.3,80,29.86,10.0,NE,6.9,-,N/A,,Overcast,40,2013-12-22 13:15:00
7:35 AM,21.7,16.7,81,29.86,10.0,NE,8.1,-,N/A,,Overcast,40,2013-12-22 13:35:00
7:55 AM,21.7,17.2,83,29.87,10.0,NNE,6.9,-,N/A,,Overcast,20,2013-12-22 13:55:00
8:15 AM,21.7,17.4,83,29.87,10.0,NNE,5.8,-,N/A,,Scattered Clouds,20,2013-12-22 14:15:00
8:35 AM,21.7,18.0,85,29.87,10.0,North,5.8,-,N/A,Snow,Light Snow,10,2013-12-22 14:35:00
8:55 AM,21.7,18.1,86,29.87,10.0,NNE,5.8,-,N/A,Snow,Light Snow,20,2013-12-22 14:55:00
9:15 AM,21.7,18.1,86,29.88,4.0,NNE,4.6,-,N/A,Snow,Light Snow,20,2013-12-22 15:15:00
9:35 AM,22.1,18.5,86,29.88,1.2,NNE,4.6,-,N/A,Snow,Light Snow,30,2013-12-22 15:35:00
9:55 AM,23.0,19.2,85,29.88,2.5,NE,8.1,-,N/A,Snow,Light Snow,40,2013-12-22 15:55:00
10:15 AM,23.0,18.7,84,29.88,2.5,NE,5.8,-,N/A,,Mostly Cloudy,50,2013-12-22 16:15:00
10:35 AM,23.0,18.5,83,29.88,2.5,NE,4.6,-,N/A,,Haze,40,2013-12-22 16:35:00
10:55 AM,24.3,19.2,81,29.89,4.0,NE,5.8,-,N/A,,Haze,50,2013-12-22 16:55:00
11:15 AM,24.3,19.4,82,29.88,2.5,NE,9.2,-,N/A,Snow,Light Snow,50,2013-12-22 17:15:00
11:35 AM,24.3,19.4,82,29.88,2.0,NE,4.6,-,N/A,Snow,Light Snow,40,2013-12-22 17:35:00
11:55 AM,24.3,19.2,81,29.88,2.5,NE,5.8,-,N/A,Snow,Light Snow,40,2013-12-22 17:55:00
12:15 PM,24.3,19.2,81,29.88,2.0,NNE,9.2,-,N/A,Snow,Light Snow,30,2013-12-22 18:15:00
12:35 PM,24.3,19.8,83,29.88,1.8,NE,5.8,16.1,N/A,Snow,Light Snow,40,2013-12-22 18:35:00
12:55 PM,24.3,19.4,82,29.87,2.0,NE,4.6,-,N/A,Snow,Light Snow,50,2013-12-22 18:55:00
1:15 PM,24.3,18.7,79,29.87,4.0,NE,9.2,-,N/A,Snow,Light Snow,40,2013-12-22 19:15:00
1:35 PM,24.3,16.9,73,29.88,10.0,ENE,9.2,-,N/A,,Mostly Cloudy,70,2013-12-22 19:35:00
1:55 PM,24.3,18.1,77,29.89,2.5,NE,4.6,-,N/A,Snow,Light Snow,50,2013-12-22 19:55:00
2:15 PM,23.4,19.2,84,29.89,1.8,Calm,Calm,-,N/A,Snow,Light Snow,0,2013-12-22 20:15:00
2:35 PM,24.3,19.4,82,29.90,3.0,NE,8.1,-,N/A,Snow,Light Snow,40,2013-12-22 20:35:00
2:55 PM,23.7,19.2,83,29.91,3.0,NNE,8.1,-,N/A,Snow,Light Snow,30,2013-12-22 20:55:00
3:15 PM,23.4,19.0,84,29.91,2.0,NNE,5.8,-,N/A,Snow,Light Snow,20,2013-12-22 21:15:00
3:35 PM,23.0,18.5,83,29.93,2.5,NNE,5.8,-,N/A,Snow,Light Snow,30,2013-12-22 21:35:00
3:55 PM,23.0,18.5,83,29.94,4.0,NNE,3.5,-,N/A,Snow,Light Snow,30,2013-12-22 21:55:00
4:15 PM,23.0,18.3,82,29.95,4.0,NE,4.6,-,N/A,Snow,Light Snow,40,2013-12-22 22:15:00
4:35 PM,22.3,18.0,83,29.96,2.0,Calm,Calm,-,N/A,Snow,Light Snow,0,2013-12-22 22:35:00
4:55 PM,21.9,18.3,86,29.98,2.0,Calm,Calm,-,N/A,Snow,Light Snow,0,2013-12-22 22:55:00
5:15 PM,21.7,18.5,87,29.98,2.0,Calm,Calm,-,N/A,Snow,Light Snow,0,2013-12-22 23:15:00
5:35 PM,21.7,18.5,87,29.99,5.0,Calm,Calm,-,N/A,Snow,Light Snow,0,2013-12-22 23:35:00
5:55 PM,21.7,18.5,87,29.99,4.0,Calm,Calm,-,N/A,Snow,Light Snow,0,2013-12-22 23:55:00
6:15 PM,21.7,18.5,87,30.00,3.0,Calm,Calm,-,N/A,Snow,Light Snow,0,2013-12-23 00:15:00
6:35 PM,21.7,18.7,88,30.00,7.0,NE,4.6,-,N/A,Snow,Light Snow,40,2013-12-23 00:35:00
6:55 PM,21.7,17.2,83,30.00,7.0,Calm,Calm,-,N/A,,Scattered Clouds,0,2013-12-23 00:55:00
7:15 PM,21.7,18.1,86,30.01,10.0,Calm,Calm,-,N/A,,Scattered Clouds,0,2013-12-23 01:15:00
7:35 PM,21.7,18.5,87,30.01,5.0,Calm,Calm,-,N/A,Snow,Light Snow,0,2013-12-23 01:35:00
7:55 PM,19.8,16.5,87,30.01,7.0,NE,3.5,-,N/A,Snow,Light Snow,40,2013-12-23 01:55:00
8:15 PM,19.4,15.6,85,30.02,10.0,NE,3.5,-,N/A,,Clear,50,2013-12-23 02:15:00
8:35 PM,19.4,15.3,84,30.01,10.0,Calm,Calm,-,N/A,,Mostly Cloudy,0,2013-12-23 02:35:00
8:55 PM,19.2,15.8,87,30.02,10.0,NNE,3.5,-,N/A,,Overcast,20,2013-12-23 02:55:00
9:15 PM,19.2,15.8,87,30.02,10.0,NNE,3.5,-,N/A,,Overcast,20,2013-12-23 03:15:00
9:35 PM,19.2,15.8,87,30.03,10.0,NNE,3.5,-,N/A,,Overcast,20,2013-12-23 03:35:00
9:55 PM,19.2,15.8,87,30.03,10.0,NNE,3.5,-,N/A,,Overcast,20,2013-12-23 03:55:00
10:15 PM,18.0,14.7,87,30.04,7.0,North,3.5,-,N/A,Snow,Light Snow,10,2013-12-23 04:15:00
10:35 PM,18.0,14.7,87,30.04,4.0,Calm,Calm,-,N/A,Snow,Light Snow,0,2013-12-23 04:35:00
10:55 PM,16.9,13.6,87,30.04,7.0,NE,3.5,-,N/A,,Mostly Cloudy,50,2013-12-23 04:55:00
11:15 PM,16.7,13.1,86,30.05,7.0,NNE,3.5,-,N/A,Snow,Light Snow,30,2013-12-23 05:15:00
11:35 PM,16.7,13.1,86,30.06,10.0,North,3.5,-,N/A,,Overcast,10,2013-12-23 05:35:00
11:55 PM,16.7,13.1,86,30.06,10.0,Calm,Calm,-,N/A,Snow,Light Snow,0,2013-12-23 05:55:00